RH
62 69 70 72 73 76 79 78 72 71 68 64 60 64 66 69 71 73 51 39 40 42 46 48 50 55 55 56 56 59 59 61 63 65 62 54 53 53 56 62 69 70 67 66 69 74 78 72 68
65 71 71 68 72 80 75 73 69 66 65 60 58 66 68 73 73 67 49 43 41 44 47 51 53 54 55 56 60 61 63 65 66 68 66 62 57 50 51 54 65 67 69 66 69 70 76 71 67
68 67 68 69 75 73 68 59 60 60 62 57 58 62 65 65 68 64 49 48 47 49 51 54 55 53 54 56 59 64 66 66 68 69 65 61 60 57 53 64 66 65 66 67 68 69 68 65 70
61 61 68 73 69 64 57 54 56 60 64 57 58 58 56 55 59 53 49 52 52 51 50 51 52 53 54 57 60 65 65 65 68 70 62 62 63 56 58 67 64 64 64 64 67 64 65 71 75
65 60 65 66 65 61 57 62 60 63 62 58 56 54 54 53 53 50 50 54 55 50 49 49 49 52 57 58 58 62 64 66 69 67 61 67 63 63 67 68 62 66 71 69 62 61 67 69 70
63 63 65 69 66 62 59 62 63 63 62 56 57 54 53 51 47 49 51 56 56 51 48 49 46 51 55 61 63 65 65 69 70 62 64 69 72 66 66 66 65 68 69 68 63 62 69 71 70
69 70 71 71 68 67 65 63 63 64 66 62 58 56 50 52 50 47 50 55 57 53 50 49 46 49 51 56 62 64 67 70 66 70 68 67 67 66 64 65 68 64 68 66 67 67 70 72 71
63 68 71 67 66 68 68 71 65 67 73 68 59 65 52 51 51 48 51 56 59 55 52 49 47 47 49 54 57 66 68 68 67 71 67 66 66 66 64 64 64 64 65 67 70 72 68 67 69
69 70 70 65 62 60 64 66 64 67 68 64 62 62 52 50 51 50 52 57 61 56 52 50 46 46 48 48 52 61 66 66 64 68 67 64 62 63 64 64 64 65 67 69 69 71 67 70 73
65 68 67 60 60 61 61 61 61 68 68 64 62 64 61 53 51 50 51 57 61 54 51 49 49 48 48 47 48 57 61 61 63 65 65 64 61 62 63 66 63 68 71 72 78 78 72 75 77
55 54 54 52 55 56 59 60 59 62 67 63 56 62 61 55 51 48 50 60 60 53 52 48 51 50 47 47 50 52 60 61 65 63 61 61 57 60 67 70 69 70 74 71 79 73 74 76 85
56 48 52 51 49 53 57 57 58 58 59 57 52 56 59 59 51 48 53 64 63 57 54 53 54 53 48 49 50 49 55 59 61 60 60 61 61 63 67 66 67 67 73 71 70 68 73 79 86
53 47 48 49 48 47 50 52 51 54 56 55 51 50 54 54 47 50 56 61 64 59 57 56 55 55 52 49 50 50 55 52 55 62 64 62 61 63 64 67 67 64 69 71 62 69 80 80 78
48 48 50 50 48 45 44 47 51 51 53 50 46 45 48 45 43 48 54 60 62 59 58 59 57 55 54 52 48 49 54 56 57 58 58 59 60 61 64 66 66 66 65 59 59 72 74 73 78
47 45 46 49 52 50 48 52 51 50 51 49 47 45 45 45 43 44 51 60 60 58 59 61 59 55 53 53 51 53 55 58 60 59 58 62 62 61 63 64 60 64 61 55 63 68 63 66 77
47 44 50 48 48 49 50 50 45 47 52 51 46 46 45 47 43 43 48 56 58 58 59 60 61 57 54 55 57 58 61 64 62 61 61 64 62 60 62 59 60 60 54 57 67 65 57 60 63
53 52 49 50 49 47 47 48 46 46 50 49 46 46 45 45 46 43 44 50 56 57 58 61 62 61 61 58 60 63 65 66 64 63 64 63 60 60 62 57 60 55 55 58 68 58 46 55 55
53 53 50 49 45 43 45 44 45 48 47 45 48 46 47 47 46 47 46 48 53 56 58 60 61 63 63 61 60 64 67 69 66 65 63 58 60 62 59 57 57 57 56 58 66 49 42 44 48
55 53 49 44 42 41 41 40 40 43 49 50 46 46 45 49 47 47 48 49 51 55 57 57 60 63 63 61 58 58 60 64 64 63 60 59 60 61 54 55 56 56 58 62 60 49 48 46 43
51 51 45 40 38 35 36 37 37 40 43 46 48 44 42 47 50 47 46 48 51 53 55 56 58 61 62 62 59 56 53 58 62 61 59 61 62 59 50 50 51 59 60 60 58 55 52 48 48
53 48 40 37 35 35 34 30 32 36 38 44 48 46 39 39 46 51 48 44 46 48 51 53 56 59 60 62 61 56 53 55 60 62 59 60 59 52 46 57 57 63 61 60 60 56 51 52 53
50 38 35 35 36 38 31 35 33 35 36 41 47 50 43 39 40 42 49 47 43 45 47 51 54 56 58 60 59 55 48 46 50 55 58 58 53 49 49 54 57 60 62 59 61 56 53 54 54
39 33 33 34 37 31 32 35 36 35 38 39 41 44 42 39 42 40 39 42 42 44 46 48 51 54 56 57 56 54 52 44 44 50 54 51 49 48 52 55 55 56 61 62 59 58 55 56 55
28 30 26 28 32 34 28 35 34 30 32 36 33 33 35 32 31 35 40 44 45 46 43 46 49 51 52 53 53 53 51 44 44 46 49 45 46 51 54 56 55 54 57 56 53 56 56 56 56
25 25 26 25 28 28 33 36 30 28 28 30 35 35 29 28 31 32 29 31 36 39 43 40 44 49 50 50 49 49 46 42 39 40 43 41 45 51 50 53 56 55 54 52 51 53 52 57 58
21 23 26 24 29 30 34 38 28 23 26 26 29 31 32 37 38 36 34 36 35 35 36 38 38 45 47 46 45 45 44 39 37 36 39 40 44 47 49 50 52 56 52 46 45 49 51 52 56
20 22 21 24 28 31 29 27 25 22 24 28 32 32 36 36 37 38 33 32 34 34 38 35 36 35 43 41 41 42 42 38 35 35 35 39 42 44 48 47 47 48 47 45 45 49 48 45 45
19 18 19 23 23 25 26 25 28 24 27 28 30 33 34 36 36 40 34 30 29 34 37 38 37 34 36 39 39 39 39 38 35 32 31 35 37 38 40 39 41 41 42 41 43 45 45 42 38
18 18 17 18 22 25 27 26 22 24 32 31 30 30 31 33 30 36 40 30 30 30 36 41 43 39 34 36 37 37 36 37 35 29 27 28 31 32 33 36 39 35 39 41 40 40 40 37 38
16 16 18 20 20 24 25 25 20 20 27 33 34 31 30 30 30 34 41 35 29 34 27 32 36 38 43 39 36 37 36 36 33 27 24 24 24 27 29 33 34 33 36 37 37 36 36 38 40